x

South Uist Range (03023) Weather Station

11:00 - Sun 1st Mar 2015 All times are GMT.

  • Wind
    24mph, 37mph gusts
  • Aire Temp 40°f
  • Sea Pressure 986mb
  • South Uist Range
  • South Uist Range

More Historic Weather Station data

Upgrade to MSW Pro to gain access to the past 30 days of data for over 8000 Wavebouys and Weather Stations around the globe.

Join Pro

Comparision Forecast

View Surf forecast
   
dom 03/01 11:00 24 37 mph 986mb 40f
10:00 30 39 mph 986mb 39f
9:00 29 48 mph 985mb 39f
8:00 32 41 mph 985mb 42f
7:00 30 45 mph 984mb 42f
6:00 36 46 mph 983mb 43f
5:00 31 51 mph 982mb 42f
4:00 32 49 mph 982mb 40f
3:00 34 45 mph 981mb 42f
2:00 32 45 mph 981mb 42f
1:00 29 40 mph 980mb 43f
12:00 29 41 mph 980mb 44f
11:00 29 41 mph 980mb 43f
10:00 32 49 mph 979mb 44f
9:00 28 44 mph 979mb 44f
8:00 28 44 mph 979mb 43f
7:00 30 40 mph 979mb 44f
6:00 31 40 mph 979mb 44f
5:00 30 40 mph 979mb 41f
4:00 26 41 mph 978mb 44f
3:00 23 38 mph 978mb 44f
2:00 24 45 mph 977mb 43f
1:00 31 43 mph 976mb 43f
12:00 26 45 mph 975mb 43f
sáb 02/28 11:00 31 41 mph 973mb 43f
10:00 28 47 mph 970mb 40f
9:00 17
mph
966mb 47f
8:00 21 39 mph 967mb 47f
7:00 26 39 mph 970mb 42f
6:00 24 38 mph 974mb 42f
5:00 22 31 mph 977mb 44f
4:00 19 32 mph 980mb 44f
3:00 21 31 mph 982mb 44f
2:00 23 31 mph 984mb 44f
1:00 21 32 mph 987mb 44f
12:00 26 36 mph 988mb 44f
11:00 24 34 mph 990mb 45f
10:00 26 33 mph 991mb 45f
9:00 25 34 mph 992mb 45f
8:00 28 34 mph 992mb 45f
7:00 23 43 mph 993mb 44f
6:00 28 41 mph 994mb 44f
5:00 28 37 mph 994mb 45f
4:00 28 41 mph 995mb 45f
3:00 24 36 mph 995mb 43f
2:00 26 36 mph 996mb 44f
1:00 28 36 mph 995mb 45f
12:00 25 39 mph 996mb 43f
vie 02/27 11:00 24 41 mph 996mb 45f
10:00 24 52 mph 995mb 45f
9:00 38 49 mph 995mb 43f
8:00 38 48 mph 996mb 43f
7:00 36 48 mph 997mb 42f
6:00 34 48 mph 998mb 42f
5:00 37 46 mph 1000mb 44f
4:00 30 44 mph 1002mb 44f
3:00 30 43 mph 1002mb 44f
2:00 28 38 mph 1004mb 45f
1:00 26 34 mph 1005mb 44f
12:00 29 36 mph 1005mb 43f
11:00 26 37 mph 1006mb 44f
10:00 24 32 mph 1006mb 44f
9:00 25 40 mph 1006mb 44f
8:00 25 43 mph 1006mb 42f
7:00 26 39 mph 1005mb 43f
6:00 23 41 mph 1005mb 42f
5:00 26 43 mph 1005mb 43f
4:00 31 44 mph 1004mb 43f
3:00 32 48 mph 1004mb 40f
2:00 33 45 mph 1003mb 40f
1:00 29 52 mph 1003mb 42f
12:00 30 51 mph 1002mb 42f
jue 02/26 11:00 31 49 mph 1001mb 43f
10:00 37 51 mph 1001mb 41f
9:00 32 53 mph 1000mb 41f
8:00 38 49 mph 1000mb 41f
7:00 31 52 mph 1000mb 40f
6:00 34 48 mph 999mb 40f
5:00 26 53 mph 999mb 39f
4:00 31 45 mph 999mb 41f
3:00 28 43 mph 999mb 42f
2:00 32 48 mph 999mb 41f
1:00 30 51 mph 998mb 42f
12:00 28 45 mph 999mb 39f
11:00 38 56 mph 998mb 36f
10:00 39 57 mph 996mb 40f
9:00 37 53 mph 996mb 42f
8:00 37 49 mph 996mb 42f
7:00 38 49 mph 995mb 42f
6:00 36 52 mph 995mb 42f
5:00 31 45 mph 994mb 43f
4:00 29 53 mph 994mb 44f
3:00 36 46 mph 993mb 46f
2:00 30 51 mph 992mb 46f
1:00 33 43 mph 992mb 48f